Torna al catalogo

SL-8 R/B

AttivoPO
NORAD 25893·ROCKET BODY·🇷🇺 Russia

Lanciato Aug 26, 1999 da Plesetsk Cosmodrome

Loading…

Prossimi Passaggi (prossime 24 ore)

TLE

AggiornatoSource: Space-Track

Epoca: Sep 14, 2026, 14:55 UTC

1 25893U 99045B   26257.62158811 -.00000003  00000-0 -18588-4 0  9997
2 25893  82.9272  30.7115 0028890  15.2938 355.3013 13.76854032359209

Traccia SL-8 R/B in tempo reale con AllMySat

Download on the App Store